Location: Monteux
(44.0348°N, 4.9972°E)
Time: 16:16:38
(UTC+00:00)

Cosmos 773 Rocket - Pass Details

Date: 30 November 2020
Orbit: 746 x 776 km, 74.1° (Epoch: 22 January)

Event Time Altitude Azimuth Distance (km) Brightness Sun altitude
Rises 17:19:05 0° 202° (SSW) 3,221 7.8 -13.3°
Reaches altitude 10° 17:21:27 10° 204° (SSW) 2,304 7.1 -13.7°
Maximum altitude 17:26:41 79° 291° (WNW) 792 4.1 -14.6°
Drops below altitude 10° 17:32:00 10° 18° (NNE) 2,333 6.2 -15.5°
Enters shadow 17:32:49 - 19° (NNE) 2,647 6.5 -15.6°
